Вернуться в каталог

COSMOS 970 DEB

АктивенLEO
NORAD 10580·DEBRIS·🇷🇺 Russia

Запущен Dec 21, 1977 с Baikonur Cosmodrome

Loading…

Ближайшие Пролёты (ближайшие 24 часа)

TLE

СвежийSource: Space-Track

Эпоха: Sep 13, 2026, 12:25 UTC

1 10580U 77121X   26256.51764328  .00000151  00000-0  37739-3 0  9998
2 10580  65.6817 323.3847 0087711 232.9220 242.6511 13.44762160386173

Отслеживайте COSMOS 970 DEB в реальном времени с AllMySat

Download on the App Store